User: anonymous   Login
Location: Unspecified
(0.0000°N, 0.0000°E)
Time: 10:19:05
(UTC+00:00)
Language:

IRVINE01 - Orbit

View from above orbital plane
View from above orbital plane
View from above satellite
View from above satellite

Ground track
Ground track

The orbit data is extracted from the following two-line orbital elements,

1 43693U 18088D   19107.91379263 +.00002739 +00000-0 +12071-3 0  9993
2 43693 085.0387 358.9121 0020853 063.1290 297.2080 15.21116436023975
Epoch (UTC): 17 April 2019 21:55:51
Eccentricity: 0.0020853
inclination: 85.0387°
perigee height: 488 km
apogee height: 517 km
right ascension of ascending node: 358.9121°
argument of perigee: 63.1290°
revolutions per day: 15.21116436
mean anomaly at epoch: 297.2080°
orbit number at epoch: 2397

The dashed part of the orbit path shows where the satellite is in the earth's shadow,  

DLR